Phoenix, AZ

5:41 AM MST on September 30, 2016 (GMT -0700)
Phoenix Sky Harbor International

Weather History for KPHX - April, 2013

Change the Weather History Date:

Saturday, April 27, 2013

  Actual Average Record
Temperature  
Mean Temperature 82 °F 76 °F  
Max Temperature 97 °F 89 °F 104 °F (1992)
Min Temperature 67 °F 64 °F 45 °F (1963)
Degree Days  
Heating Degree Days 0 0  
Month to date heating degree days 0 17  
Since 1 July heating degree days 881 931  
Cooling Degree Days 17 11  
Month to date cooling degree days 254 215  
Year to date cooling degree days 442 319  
Growing Degree Days 32 (Base 50)    
Moisture  
Dew Point 26 °F    
Average Humidity 18    
Maximum Humidity 30    
Minimum Humidity 5    
Precipitation  
Precipitation 0.00 in 0.01 in 0.34 in (1952)
Month to date precipitation 0.06 0.27  
Year to date precipitation 2.61 3.09  
Snow  
Snow 0.00 in - - ()
Month to date snowfall 0.0  
Year to date snowfall 0.0  
Since 1 July snowfall 0.0  
Snow Depth 0.00 in    
Sea Level Pressure  
Sea Level Pressure 29.89 in    
Wind  
Wind Speed 3 mph (South)    
Max Wind Speed 15 mph    
Max Gust Speed 18 mph    
Visibility 10 miles    
Events      
T = Trace of Precipitation, MM = Missing Value Source: NWS Daily Summary

Daily Weather History Graph

Daily Weather History Graph

Search for Another Location

Airport or City:

Trip Planner

Search our weather history database for the weather conditions in past years. The results will help you decide how hot, cold, wet, or windy it might be!

Date:

Astronomy

Apr. 27, 2013 Rise Set
Actual Time 5:43 AM MST 7:08 PM MST
Civil Twilight 5:17 AM MST 7:34 PM MST
Nautical Twilight 4:46 AM MST 8:05 PM MST
Astronomical Twilight 4:13 AM MST 8:38 PM MST
Moon 9:35 PM MST (4/27) 7:10 AM MST (4/27)
Length of Visible Light 14h 16m
Length of Day
13h 24m
Waning Gibbous, 95% of the Moon is Illuminated
Apr 27
Waning Gibbous
May 2
Last Quarter
May 9
New
May 17
First Quarter
May 24
Full

Hourly Weather History & Observations

Time (MST) Temp. Dew Point Humidity Pressure Visibility Wind Dir Wind Speed Gust Speed Precip Events Conditions
12:51 AM 78.1 °F 27.0 °F 15% 29.96 in 10.0 mi Calm Calm - N/A   Clear
1:51 AM 73.9 °F 30.9 °F 21% 29.95 in 10.0 mi Calm Calm - N/A   Clear
2:51 AM 72.0 °F 32.0 °F 23% 29.94 in 10.0 mi Calm Calm - N/A   Clear
3:51 AM 69.1 °F 34.0 °F 27% 29.95 in 10.0 mi East 4.6 mph - N/A   Clear
4:51 AM 68.0 °F 36.0 °F 31% 29.95 in 10.0 mi Calm Calm - N/A   Clear
5:51 AM 66.9 °F 34.0 °F 30% 29.97 in 10.0 mi Calm Calm - N/A   Partly Cloudy
6:51 AM 70.0 °F 30.9 °F 24% 29.99 in 10.0 mi East 3.5 mph - N/A   Partly Cloudy
7:51 AM 73.0 °F 32.0 °F 22% 29.99 in 10.0 mi East 3.5 mph - N/A   Partly Cloudy
8:51 AM 78.1 °F 32.0 °F 19% 29.98 in 10.0 mi SE 5.8 mph - N/A   Clear
9:51 AM 82.9 °F 30.0 °F 15% 29.98 in 10.0 mi East 3.5 mph - N/A   Clear
10:51 AM 87.1 °F 28.9 °F 12% 29.97 in 10.0 mi Variable 3.5 mph - N/A   Partly Cloudy
11:51 AM 89.1 °F 26.1 °F 10% 29.94 in 10.0 mi Calm Calm - N/A   Partly Cloudy
12:51 PM 91.9 °F 25.0 °F 9% 29.91 in 10.0 mi NW 5.8 mph - N/A   Partly Cloudy
1:51 PM 96.1 °F 23.0 °F 7% 29.88 in 10.0 mi SW 9.2 mph - N/A   Partly Cloudy
2:51 PM 95.0 °F 16.0 °F 6% 29.84 in 10.0 mi Calm Calm - N/A   Partly Cloudy
3:51 PM 93.9 °F 17.1 °F 6% 29.82 in 10.0 mi NNW 3.5 mph - N/A   Partly Cloudy
4:51 PM 95.0 °F 17.1 °F 6% 29.81 in 10.0 mi Calm Calm - N/A   Partly Cloudy
5:51 PM 95.0 °F 15.1 °F 5% 29.79 in 10.0 mi WSW 4.6 mph - N/A   Partly Cloudy
6:51 PM 93.9 °F 16.0 °F 6% 29.79 in 10.0 mi West 12.7 mph - N/A   Partly Cloudy
7:51 PM 91.0 °F 17.1 °F 7% 29.79 in 10.0 mi West 5.8 mph - N/A   Clear
8:51 PM 86.0 °F 21.0 °F 9% 29.80 in 10.0 mi WSW 3.5 mph - N/A   Clear
9:51 PM 86.0 °F 19.9 °F 9% 29.81 in 10.0 mi Calm Calm - N/A   Clear
10:51 PM 84.0 °F 21.9 °F 10% 29.80 in 10.0 mi Calm Calm - N/A   Clear
11:51 PM 78.1 °F 28.0 °F 16% 29.80 in 10.0 mi East 6.9 mph - N/A   Clear